Temperature
14 14 14 14 14 14 14 15 15 15 14 14 14 14 14 14 14 14 14 14 14 14 14 14 14 14 14 14 14 14 14 13 13 13 13 13 13 13 13 13 13 12 12
13 13 14 14 14 14 14 14 14 14 14 14 14 14 14 14 14 14 14 14 14 14 14 14 14 14 14 13 13 13 13 13 13 13 13 13 13 13 13 13 12 12 12
13 13 13 13 13 14 14 14 14 14 14 14 14 14 14 14 14 14 14 14 14 14 13 13 13 13 13 13 13 13 13 13 13 13 13 13 12 12 12 12 12 12 12
12 12 12 13 13 13 13 13 14 14 14 14 14 14 14 14 14 14 13 13 13 13 13 13 13 13 13 13 13 13 13 13 13 13 13 12 12 12 12 12 12 12 12
11 12 12 12 13 13 13 13 13 13 13 13 13 13 13 13 13 13 13 13 13 13 13 13 13 13 13 13 13 13 13 13 13 12 12 12 12 12 12 12 11 11 11
11 11 11 12 12 12 12 12 13 13 13 13 13 13 13 13 13 13 13 13 13 13 13 13 13 13 13 13 13 13 13 12 12 12 12 12 12 12 11 11 11 11 11
10 10 11 11 11 12 12 12 12 12 12 12 12 12 12 12 12 13 13 12 12 12 12 12 12 12 12 13 12 12 12 12 12 12 12 12 11 11 11 11 11 11 10
10 10 10 11 11 11 11 11 11 11 12 12 12 11 11 12 12 12 12 12 12 12 12 12 12 12 12 12 12 12 12 12 12 12 12 11 11 11 10 10 10 10 10
9 9 10 10 10 10 11 11 11 11 11 11 11 11 11 11 11 12 12 12 12 12 12 11 11 11 11 11 11 11 11 11 11 11 11 11 10 10 10 10 10 10 10
9 9 9 9 10 10 10 10 10 10 10 10 10 10 10 10 10 10 10 11 11 11 11 11 11 11 11 11 11 11 11 11 11 11 10 10 10 10 10 10 10 10 9
8 8 8 9 9 9 9 9 10 10 10 10 10 10 10 10 10 9 9 9 10 10 10 10 10 10 10 10 10 10 10 10 10 10 10 9 9 9 9 9 9 9 9
7 8 8 8 8 8 9 9 9 9 9 9 9 9 9 9 9 9 9 8 9 9 10 10 9 9 9 9 10 10 9 10 10 9 9 9 9 9 9 9 9 9 9
7 7 7 7 7 8 8 8 8 8 8 8 8 8 8 8 8 8 8 8 8 8 8 9 9 9 9 9 9 9 9 9 9 9 9 9 9 9 8 8 8 8 8
6 6 7 7 7 7 7 7 7 7 7 7 8 8 8 8 8 8 8 8 7 7 8 8 8 8 8 8 8 8 8 8 8 8 8 8 8 8 8 8 8 8 8
5 5 6 6 6 6 6 6 7 7 7 7 7 7 7 7 7 7 7 7 7 6 7 7 7 7 7 7 8 7 7 7 7 7 7 7 7 7 7 7 7 7 7
5 5 5 5 5 6 6 6 6 6 6 6 6 6 6 7 7 6 7 7 6 6 6 6 7 7 7 7 7 7 7 7 7 7 7 7 7 7 6 6 6 7 7
4 5 5 5 5 5 5 5 5 5 6 6 6 6 6 6 6 6 6 6 6 6 5 6 6 6 6 6 6 6 6 6 6 6 6 6 6 6 6 6 6 6 6
4 4 4 4 4 5 5 5 5 5 5 5 5 5 5 5 5 5 5 5 5 5 5 5 5 5 6 6 6 5 6 6 5 6 5 5 5 5 5 5 5 5 5
4 4 4 4 4 4 4 4 4 4 4 4 4 4 4 4 4 4 4 4 4 4 4 4 4 5 5 5 5 5 5 5 5 5 5 5 5 5 5 5 5 4 5
3 3 3 3 3 3 3 3 4 3 3 3 3 4 4 4 4 4 4 4 4 4 4 4 4 4 4 4 4 4 4 4 4 4 4 4 4 4 4 4 4 4 4
3 3 3 3 2 3 2 2 3 3 3 3 3 3 3 3 3 3 3 3 3 3 3 3 3 3 3 3 3 3 3 3 3 3 3 3 3 4 4 4 3 3 3
2 2 2 2 2 2 2 2 2 2 2 2 2 3 2 2 3 2 2 2 2 2 2 2 2 2 2 2 2 2 2 2 2 2 2 3 3 3 3 3 3 3 3
2 2 2 2 2 2 2 1 1 2 2 2 2 2 2 2 2 2 2 2 2 1 1 1 1 1 1 1 1 1 1 1 1 1 1 1 2 2 3 3 2 2 2
1 1 1 1 1 1 1 1 1 1 1 1 1 1 1 1 1 1 1 1 1 1 1 1 1 1 1 1 1 1 1 1 1 1 1 1 1 2 2 2 2 2 2
1 1 1 1 1 1 1 1 0 1 1 1 1 1 1 1 1 1 1 1 1 1 0 0 0 0 0 0 0 0 0 -0 0 1 1 0 1 1 1 1 2 2 2
0 0 0 -0 -0 0 0 0 -0 -0 0 0 0 0 0 0 0 0 0 0 0 0 0 0 0 0 0 0 -0 -0 -1 -1 -1 -0 0 0 0 0 0 1 1 1 1
Wind_Speed
4 4 4 5 7 7 7 6 6 7 7 8 9 8 8 9 10 10 10 14 16 16 15 14 13 12 12 11 10 9 8 8 7 7 7 6 6 6 6 7 8 8 8
4 5 5 5 6 8 8 7 7 6 6 6 7 8 8 9 10 11 12 14 16 17 16 15 14 13 13 12 11 10 10 9 9 8 8 8 8 8 8 8 9 9 9
5 5 5 5 6 8 8 7 6 5 5 6 7 8 7 8 9 10 11 12 13 16 16 16 15 14 13 12 12 11 11 10 10 10 10 9 9 9 9 10 10 10 10
7 5 5 5 5 6 6 6 6 6 6 6 6 6 6 7 8 9 10 11 12 12 14 15 15 14 14 13 12 12 12 11 11 11 11 11 11 11 11 11 11 12 11
6 4 5 5 5 4 5 6 6 6 5 5 6 6 6 6 7 7 7 9 11 11 11 13 14 14 13 13 13 12 12 12 11 11 12 12 12 13 13 13 13 12 12
5 4 4 5 5 5 5 5 6 6 5 5 5 6 6 6 6 6 7 7 9 10 11 10 11 11 13 13 13 13 13 13 13 13 13 13 13 14 14 14 13 14 14
4 4 4 4 5 5 6 6 6 6 5 4 2 3 3 5 6 6 6 5 6 7 9 9 9 9 10 13 14 14 14 14 14 14 14 14 14 15 15 15 14 15 14
3 4 4 4 5 5 5 5 5 4 4 4 3 2 2 2 4 6 5 6 6 5 6 8 9 9 9 9 10 13 13 14 14 15 15 15 15 16 16 16 16 15 15
3 3 4 4 4 5 5 5 6 7 5 4 4 4 3 4 2 2 4 6 6 5 5 5 7 8 9 8 8 10 11 13 15 16 16 15 16 16 17 17 17 16 16
3 2 3 3 4 4 5 6 6 6 6 5 4 4 3 2 2 2 2 4 5 6 6 5 6 7 8 8 8 8 10 12 14 16 16 16 17 16 17 17 17 17 16
2 2 2 3 4 4 4 5 4 5 4 5 4 3 3 3 2 3 4 3 3 4 5 5 5 4 6 6 6 7 9 11 14 16 17 17 17 16 16 17 17 16 16
2 2 2 2 3 3 4 4 4 5 5 4 4 4 4 3 3 3 4 5 4 4 4 4 4 4 4 5 7 8 9 11 13 14 16 16 17 16 17 17 16 16 16
2 3 3 3 3 3 4 4 3 3 4 5 5 4 4 4 3 3 4 4 5 3 3 3 4 3 3 5 7 9 10 11 13 15 17 17 16 16 16 17 17 16 16
3 3 4 3 3 3 3 3 3 3 3 4 5 5 4 4 3 3 3 4 4 4 4 4 3 3 3 5 7 8 9 12 13 15 17 16 15 14 14 16 16 17 17
3 3 3 3 3 3 3 3 3 3 3 4 4 4 4 3 3 2 3 3 5 6 7 4 3 3 3 5 7 7 8 11 13 14 15 15 15 14 15 15 16 16 16
3 3 3 3 3 3 3 2 3 3 3 3 3 3 3 2 2 2 3 3 4 5 7 4 4 4 4 5 7 8 9 11 12 13 13 14 14 14 14 15 16 15 15
3 3 2 2 2 2 2 2 2 3 2 3 3 3 3 2 2 2 3 3 4 4 7 6 4 4 5 5 5 6 8 9 10 12 13 13 13 13 13 14 15 15 14
2 2 2 1 1 1 2 2 2 3 3 3 3 3 3 3 3 3 3 4 4 4 5 7 5 4 6 6 6 6 6 7 9 11 13 13 13 13 13 13 13 14 15
3 2 2 1 1 2 2 2 2 2 3 4 4 4 4 3 4 3 4 4 3 4 4 5 6 5 5 5 5 5 6 6 7 9 11 11 12 12 13 13 13 13 14
3 3 2 2 2 2 2 2 2 2 2 2 2 3 4 5 5 4 4 4 3 3 3 4 5 5 5 4 4 5 6 5 7 7 8 9 11 13 13 13 13 13 13
3 3 3 2 2 2 1 1 1 1 1 1 1 2 3 3 4 3 3 3 3 4 4 4 4 5 5 4 4 4 7 7 7 5 6 6 7 7 8 11 12 12 13
4 4 4 3 3 3 4 3 1 0 0 1 1 2 3 2 2 3 4 5 4 5 5 5 5 6 6 5 5 5 6 6 7 3 5 7 5 7 7 7 10 12 12
3 4 4 3 3 4 5 4 3 1 1 2 2 2 3 3 3 4 4 5 6 7 8 7 7 7 7 7 6 6 6 7 8 5 5 8 6 8 7 9 11 11 12
3 3 4 4 3 4 4 3 4 2 1 2 3 3 4 4 4 4 3 4 5 6 7 6 6 7 7 6 7 7 8 8 7 5 4 7 6 6 7 7 11 11 11
3 4 4 4 3 4 4 4 4 1 2 3 3 3 3 4 5 5 3 4 5 6 6 7 8 8 8 8 7 5 5 5 7 5 3 4 5 5 5 6 8 10 11
3 4 4 4 4 4 5 5 5 1 2 2 3 3 4 5 5 5 4 4 6 6 5 5 6 6 5 6 7 6 6 6 6 5 3 3 4 3 4 4 5 6 7
Wind_Direction
227 224 217 211 210 205 200 201 205 205 205 207 210 211 217 217 215 213 216 217 215 214 213 213 214 216 217 220 222 219 222 229 238 243 247 252 260 267 276 284 285 285 283
230 225 221 216 214 209 205 202 204 208 212 211 215 215 218 220 219 215 215 216 217 215 214 216 218 219 220 222 223 223 226 231 237 239 246 251 258 266 273 278 283 287 284
229 229 224 219 219 213 207 204 205 208 216 217 220 219 219 221 220 219 217 215 215 217 216 217 218 220 223 224 226 227 230 234 237 242 248 252 258 263 269 273 277 279 280
232 223 227 224 222 215 208 206 205 207 215 220 223 224 221 220 220 218 215 214 212 214 216 216 218 220 222 225 230 232 236 240 242 245 249 252 256 261 266 270 273 275 274
244 228 230 232 221 215 211 213 208 205 212 221 227 224 221 217 218 215 212 210 211 211 211 214 217 220 222 225 232 237 241 243 245 248 251 254 257 260 264 267 271 272 272
260 244 239 239 224 215 215 212 210 209 211 215 228 232 228 222 217 212 212 208 208 210 211 213 214 220 221 226 233 239 244 247 248 251 253 254 257 261 264 266 268 269 270
273 250 248 241 229 220 218 214 208 208 213 202 204 246 248 231 220 214 209 205 207 209 209 212 213 215 224 230 235 242 246 250 253 254 255 256 257 260 262 265 266 267 267
284 260 247 241 234 228 221 220 211 209 213 195 184 184 245 251 232 222 212 207 210 209 213 220 217 216 221 226 234 239 246 254 259 260 260 260 260 262 263 264 265 266 267
290 276 264 247 241 229 221 218 215 205 212 211 193 184 194 223 239 235 219 214 211 212 218 217 217 219 222 227 236 240 246 253 260 263 263 263 263 262 263 264 265 265 266
306 302 282 264 251 242 228 221 221 218 203 213 215 209 213 197 198 235 234 219 220 222 221 224 220 221 221 225 236 248 251 255 261 266 266 266 266 266 267 267 266 266 265
311 307 285 264 257 252 238 224 223 227 216 214 215 213 223 223 212 216 241 237 245 232 225 220 217 217 223 231 242 262 265 263 267 270 270 269 268 268 270 271 270 269 268
290 287 276 256 256 256 247 234 222 223 223 217 215 210 207 200 207 217 229 233 242 244 238 222 215 212 222 241 253 266 263 263 267 270 272 274 273 272 271 271 270 271 272
282 284 277 259 258 252 248 240 227 226 231 221 217 219 218 222 211 224 227 236 247 254 236 226 214 213 241 253 258 261 259 262 265 267 271 272 274 273 272 271 270 271 272
283 283 272 262 261 261 256 242 224 227 237 237 231 221 221 227 217 222 225 230 248 255 244 236 218 215 250 258 262 260 263 263 263 265 267 270 272 271 273 273 270 270 271
288 284 275 274 268 258 252 249 232 228 230 235 234 227 225 229 216 221 230 226 228 246 248 240 237 233 262 270 271 265 270 267 265 265 265 268 270 269 270 269 271 272 271
291 288 288 281 276 266 252 245 250 238 225 242 235 223 224 227 214 222 228 242 242 245 257 254 248 256 253 280 274 270 269 273 265 266 268 269 268 268 268 269 270 270 270
319 308 295 288 286 287 281 256 257 247 232 243 237 220 219 209 209 226 229 234 241 243 258 269 267 268 258 262 272 273 275 270 267 267 270 270 269 270 268 269 270 270 271
323 314 316 322 315 294 271 260 275 271 250 244 241 224 225 221 217 226 227 236 243 246 253 268 276 268 259 253 252 262 275 280 272 269 266 269 271 272 270 271 272 271 270
344 342 339 319 299 293 289 262 258 268 257 240 232 224 225 218 228 236 235 238 247 259 256 258 268 270 266 260 261 268 270 270 279 271 267 268 272 275 273 272 272 272 271
342 342 343 333 319 301 291 276 247 249 256 254 239 234 234 228 228 228 233 235 243 253 260 265 273 273 266 260 254 264 276 270 272 278 276 277 277 274 272 272 273 271 270
353 354 358 352 342 327 310 307 241 231 233 265 270 255 248 251 256 252 255 248 245 248 257 262 272 281 277 271 266 268 277 285 274 262 270 273 273 266 266 271 272 270 268
359 6 1 349 350 343 352 354 1 124 257 259 279 290 275 251 270 283 282 281 273 255 252 256 264 271 279 280 278 279 282 285 278 245 268 274 263 265 269 263 274 278 272
358 355 347 346 347 342 346 353 354 348 312 272 262 265 276 272 266 252 273 288 282 278 267 259 261 264 269 272 272 274 272 273 273 271 268 268 261 262 269 271 275 277 276
350 346 342 341 337 333 344 348 350 346 309 285 276 262 255 263 263 267 260 275 274 274 272 261 254 259 262 267 263 261 270 277 277 265 245 261 266 268 275 268 272 275 276
357 353 348 348 339 331 338 340 346 313 296 289 281 279 270 262 279 289 273 272 281 279 283 281 279 280 281 280 281 273 272 277 281 273 241 254 268 279 275 264 268 273 273
352 350 350 344 336 327 336 342 338 307 300 299 296 290 285 282 287 291 264 259 268 278 284 288 287 292 279 270 274 258 252 259 275 272 244 250 266 286 283 264 261 264 268
Height
1509 1510 1512 1514 1515 1517 1518 1520 1522 1523 1525 1526 1527 1528 1529 1531 1532 1533 1534 1535 1536 1536 1537 1537 1538 1538 1538 1539 1539 1539 1539 1539 1538 1538 1537 1537 1536 1535 1534 1533 1532 1531 1530
1504 1506 1507 1509 1510 1512 1514 1516 1517 1519 1520 1522 1523 1524 1525 1527 1528 1529 1530 1531 1532 1533 1534 1534 1534 1535 1535 1536 1536 1536 1536 1536 1535 1535 1534 1534 1533 1532 1531 1530 1529 1528 1527
1500 1501 1502 1504 1505 1507 1509 1511 1513 1515 1516 1517 1519 1520 1521 1522 1523 1524 1526 1527 1528 1529 1530 1530 1531 1531 1532 1532 1532 1532 1532 1532 1532 1531 1531 1530 1530 1529 1528 1527 1526 1525 1524
1494 1496 1497 1498 1501 1502 1504 1506 1508 1509 1511 1512 1514 1515 1516 1518 1519 1520 1521 1522 1523 1524 1525 1526 1527 1527 1528 1528 1529 1529 1529 1528 1528 1527 1527 1526 1526 1525 1524 1523 1522 1521 1520
1489 1490 1492 1493 1495 1497 1499 1501 1502 1504 1506 1507 1509 1510 1511 1512 1514 1515 1516 1517 1518 1520 1521 1522 1522 1523 1523 1524 1524 1524 1524 1524 1524 1523 1523 1522 1521 1521 1520 1519 1518 1517 1516
1484 1485 1487 1488 1490 1491 1493 1495 1496 1498 1500 1502 1504 1505 1506 1507 1509 1510 1511 1512 1513 1514 1516 1516 1517 1518 1518 1519 1519 1519 1519 1519 1519 1519 1518 1517 1517 1516 1515 1514 1513 1512 1511
1478 1480 1481 1483 1484 1485 1487 1489 1491 1493 1495 1497 1499 1500 1501 1502 1503 1504 1505 1507 1508 1509 1510 1511 1512 1512 1513 1513 1514 1514 1514 1514 1514 1513 1513 1512 1512 1511 1510 1509 1508 1507 1506
1473 1474 1476 1477 1479 1480 1481 1483 1485 1486 1489 1492 1493 1494 1495 1496 1496 1498 1499 1501 1502 1503 1504 1505 1506 1507 1507 1507 1507 1508 1508 1508 1508 1508 1507 1507 1506 1505 1504 1504 1502 1501 1500
1468 1469 1470 1472 1473 1475 1476 1477 1480 1481 1483 1485 1487 1489 1490 1489 1490 1491 1493 1495 1496 1497 1498 1499 1500 1500 1501 1501 1501 1501 1502 1502 1502 1502 1501 1501 1500 1499 1498 1498 1496 1495 1494
1463 1464 1465 1466 1468 1469 1470 1472 1474 1476 1477 1479 1481 1483 1484 1484 1485 1485 1487 1488 1490 1491 1492 1493 1493 1494 1495 1495 1495 1495 1495 1495 1496 1495 1495 1494 1494 1493 1492 1491 1490 1489 1488
1458 1459 1460 1461 1463 1464 1465 1467 1468 1470 1471 1473 1475 1476 1478 1479 1479 1480 1480 1482 1483 1485 1486 1486 1487 1488 1488 1488 1488 1488 1488 1488 1489 1489 1488 1488 1487 1486 1485 1484 1483 1482 1481
1453 1454 1455 1456 1457 1459 1459 1461 1462 1464 1465 1467 1469 1470 1471 1472 1473 1474 1475 1476 1476 1478 1479 1480 1481 1481 1482 1482 1481 1481 1481 1482 1482 1481 1481 1480 1480 1479 1478 1477 1476 1475 1474
1449 1449 1451 1451 1452 1453 1454 1455 1456 1458 1460 1461 1462 1464 1465 1466 1468 1469 1470 1470 1471 1471 1472 1473 1474 1475 1475 1475 1475 1474 1475 1475 1475 1474 1474 1473 1472 1471 1470 1470 1469 1468 1466
1445 1446 1447 1447 1448 1448 1449 1450 1451 1452 1455 1456 1457 1458 1459 1461 1462 1464 1465 1466 1465 1466 1466 1466 1466 1468 1468 1468 1468 1468 1467 1468 1467 1467 1467 1466 1465 1464 1463 1462 1461 1460 1459
1442 1443 1443 1444 1444 1444 1444 1445 1445 1447 1449 1450 1451 1453 1454 1455 1456 1458 1460 1461 1462 1460 1458 1459 1460 1460 1461 1461 1461 1460 1460 1460 1459 1459 1459 1459 1457 1456 1455 1454 1453 1452 1450
1439 1439 1440 1440 1440 1440 1440 1440 1441 1442 1443 1445 1446 1447 1448 1449 1450 1452 1454 1455 1456 1455 1453 1452 1453 1454 1454 1454 1454 1454 1453 1452 1452 1451 1451 1450 1449 1448 1447 1446 1445 1444 1442
1437 1436 1436 1436 1436 1436 1435 1436 1436 1437 1437 1439 1440 1441 1442 1443 1445 1446 1448 1449 1449 1449 1447 1446 1448 1448 1448 1447 1447 1446 1446 1445 1444 1443 1443 1442 1441 1440 1439 1438 1437 1436 1434
1434 1434 1433 1433 1432 1432 1431 1431 1432 1432 1432 1433 1434 1436 1436 1438 1439 1441 1441 1442 1442 1443 1442 1440 1440 1441 1440 1440 1439 1439 1438 1437 1436 1435 1435 1434 1433 1432 1431 1430 1428 1427 1426
1431 1431 1430 1429 1428 1428 1427 1427 1427 1427 1428 1428 1429 1430 1431 1433 1433 1434 1435 1436 1436 1437 1436 1435 1433 1434 1433 1433 1432 1431 1431 1430 1429 1428 1427 1426 1425 1424 1423 1422 1420 1419 1418
1429 1428 1426 1425 1425 1424 1424 1423 1423 1423 1424 1424 1424 1425 1426 1427 1428 1429 1429 1430 1430 1430 1430 1429 1428 1427 1427 1426 1425 1424 1422 1421 1421 1420 1419 1418 1417 1416 1415 1414 1413 1411 1410
1427 1425 1423 1422 1422 1421 1420 1420 1420 1419 1419 1419 1420 1421 1422 1422 1423 1424 1424 1424 1424 1424 1424 1423 1422 1421 1420 1419 1418 1417 1416 1414 1413 1412 1411 1410 1409 1408 1407 1406 1404 1403 1402
1425 1423 1421 1420 1419 1418 1418 1417 1417 1416 1416 1416 1416 1416 1417 1418 1418 1419 1419 1419 1419 1419 1418 1417 1416 1415 1414 1413 1412 1411 1410 1408 1405 1406 1405 1402 1402 1400 1398 1398 1397 1396 1394
1423 1421 1420 1418 1417 1416 1415 1415 1414 1414 1413 1413 1413 1412 1413 1413 1413 1414 1414 1414 1414 1414 1414 1413 1411 1409 1408 1408 1407 1405 1404 1403 1400 1399 1399 1395 1394 1392 1391 1390 1389 1388 1387
1421 1419 1418 1416 1415 1414 1413 1413 1412 1411 1410 1410 1409 1409 1409 1408 1409 1409 1408 1408 1408 1408 1407 1407 1405 1403 1402 1402 1402 1401 1399 1397 1395 1394 1393 1390 1387 1386 1385 1383 1383 1382 1381
1420 1418 1416 1415 1413 1412 1411 1410 1409 1408 1407 1406 1406 1405 1405 1404 1404 1404 1404 1403 1402 1402 1402 1401 1400 1398 1397 1397 1396 1395 1392 1391 1387 1386 1386 1385 1381 1379 1378 1377 1376 1375 1374
1419 1417 1415 1414 1412 1410 1409 1408 1407 1405 1404 1403 1402 1401 1400 1399 1399 1399 1398 1397 1396 1395 1395 1394 1393 1391 1390 1389 1389 1388 1386 1385 1382 1380 1379 1379 1377 1375 1372 1370 1370 1369 1368